Time,TemperatureF,DewpointF,PressureIn,WindDirection,WindDirectionDegrees,WindSpeedMPH,WindSpeedGustMPH,Humidity,HourlyPrecipIn,Conditions,Clouds,dailyrainin,SoftwareType,DateUTC
2013-06-06 00:00:00,60.8,46.0,29.92,ENE,78,0.0,2.0,58,0.00,,---,0.00,VWS V14.00,2013-06-06 04:00:00,
2013-06-06 00:01:00,60.8,46.0,29.92,East,80,1.0,2.0,58,0.00,,---,0.00,VWS V14.00,2013-06-06 04:01:00,
2013-06-06 00:02:00,60.7,45.8,29.92,East,80,3.0,3.0,58,0.00,,---,0.00,VWS V14.00,2013-06-06 04:02:00,
2013-06-06 00:03:00,60.7,45.8,29.92,ESE,119,2.0,3.0,58,0.00,,---,0.00,VWS V14.00,2013-06-06 04:03:00,
2013-06-06 00:05:00,60.7,45.8,29.92,East,90,0.0,4.0,58,0.00,,---,0.00,VWS V14.00,2013-06-06 04:05:00,
2013-06-06 00:10:00,60.6,45.8,29.92,ENE,75,0.0,4.0,58,0.00,,---,0.00,VWS V14.00,2013-06-06 04:10:00,
2013-06-06 00:16:00,60.5,45.7,29.93,NE,51,0.0,4.0,58,0.00,,---,0.00,VWS V14.00,2013-06-06 04:16:00,
2013-06-06 00:21:00,60.4,45.6,29.93,NE,55,0.0,4.0,58,0.00,,---,0.00,VWS V14.00,2013-06-06 04:21:00,
2013-06-06 00:26:00,60.4,45.6,29.93,East,79,0.0,4.0,58,0.00,,---,0.00,VWS V14.00,2013-06-06 04:26:00,
2013-06-06 00:31:00,60.3,45.9,29.93,East,79,0.0,1.0,59,0.00,,---,0.00,VWS V14.00,2013-06-06 04:31:00,
2013-06-06 00:36:00,60.2,45.4,29.93,East,79,0.0,1.0,58,0.00,,---,0.00,VWS V14.00,2013-06-06 04:36:00,
2013-06-06 00:41:00,60.2,45.8,29.93,ENE,78,0.0,1.0,59,0.00,,---,0.00,VWS V14.00,2013-06-06 04:41:00,
2013-06-06 00:47:00,60.1,45.7,29.92,ENE,71,0.0,1.0,59,0.00,,---,0.00,VWS V14.00,2013-06-06 04:47:00,
2013-06-06 00:52:00,60.0,45.7,29.92,NNE,14,0.0,4.0,59,0.00,,---,0.00,VWS V14.00,2013-06-06 04:52:00,
2013-06-06 00:57:00,59.9,46.0,29.92,NNE,14,0.0,4.0,60,0.00,,---,0.00,VWS V14.00,2013-06-06 04:57:00,
2013-06-06 01:02:00,59.9,46.0,29.92,NNE,15,0.0,0.0,60,0.00,,---,0.00,VWS V14.00,2013-06-06 05:02:00,
2013-06-06 01:07:00,59.8,46.3,29.92,North,10,0.0,2.0,61,0.00,,---,0.00,VWS V14.00,2013-06-06 05:07:00,
2013-06-06 01:12:00,59.7,46.2,29.91,NNE,13,1.0,2.0,61,0.00,,---,0.00,VWS V14.00,2013-06-06 05:12:00,
2013-06-06 01:17:00,59.5,46.5,29.91,NNE,14,0.0,2.0,62,0.00,,---,0.00,VWS V14.00,2013-06-06 05:17:00,
2013-06-06 01:22:00,59.4,46.4,29.91,NNE,24,0.0,3.0,62,0.00,,---,0.00,VWS V14.00,2013-06-06 05:22:00,
2013-06-06 01:27:00,59.2,46.6,29.91,East,89,2.0,4.0,63,0.00,,---,0.00,VWS V14.00,2013-06-06 05:27:00,
2013-06-06 01:33:00,59.1,47.0,29.90,ENE,77,1.0,2.0,64,0.00,,---,0.00,VWS V14.00,2013-06-06 05:33:00,
2013-06-06 01:38:00,59.0,46.8,29.90,ESE,106,0.0,3.0,64,0.00,,---,0.00,VWS V14.00,2013-06-06 05:38:00,
2013-06-06 01:43:00,58.9,47.2,29.90,East,86,2.0,3.0,65,0.00,,---,0.00,VWS V14.00,2013-06-06 05:43:00,
2013-06-06 01:48:00,58.8,47.1,29.90,East,86,0.0,3.0,65,0.00,,---,0.00,VWS V14.00,2013-06-06 05:48:00,
2013-06-06 01:53:00,58.7,47.0,29.90,ENE,74,0.0,3.0,65,0.00,,---,0.00,VWS V14.00,2013-06-06 05:53:00,
2013-06-06 01:58:00,58.6,47.3,29.90,ENE,74,0.0,3.0,66,0.00,,---,0.00,VWS V14.00,2013-06-06 05:58:00,
2013-06-06 02:03:00,58.5,47.2,29.90,ENE,74,0.0,1.0,66,0.00,,---,0.00,VWS V14.00,2013-06-06 06:03:00,
2013-06-06 02:08:00,58.5,47.6,29.90,ENE,74,0.0,2.0,67,0.00,,---,0.00,VWS V14.00,2013-06-06 06:08:00,
2013-06-06 02:14:00,58.4,47.5,29.90,ENE,64,1.0,3.0,67,0.00,,---,0.00,VWS V14.00,2013-06-06 06:14:00,
2013-06-06 02:19:00,58.3,47.8,29.90,ENE,65,0.0,3.0,68,0.00,,---,0.00,VWS V14.00,2013-06-06 06:19:00,
2013-06-06 02:24:00,58.2,48.1,29.90,ENE,64,0.0,3.0,69,0.00,,---,0.00,VWS V14.00,2013-06-06 06:24:00,
2013-06-06 02:29:00,58.2,48.1,29.90,ENE,63,0.0,3.0,69,0.00,,---,0.00,VWS V14.00,2013-06-06 06:29:00,
2013-06-06 02:34:00,58.2,48.5,29.90,ENE,64,0.0,0.0,70,0.00,,---,0.00,VWS V14.00,2013-06-06 06:34:00,
2013-06-06 02:39:00,58.1,48.4,29.89,ENE,64,0.0,1.0,70,0.00,,---,0.00,VWS V14.00,2013-06-06 06:39:00,
2013-06-06 02:44:00,58.0,48.7,29.89,NE,37,0.0,3.0,71,0.00,,---,0.00,VWS V14.00,2013-06-06 06:44:00,
2013-06-06 02:49:00,57.9,48.9,29.89,NE,36,0.0,3.0,72,0.00,,---,0.00,VWS V14.00,2013-06-06 06:49:00,
2013-06-06 02:54:00,57.8,48.8,29.89,NE,35,0.0,3.0,72,0.00,,---,0.00,VWS V14.00,2013-06-06 06:54:00,
2013-06-06 02:59:00,57.8,49.2,29.89,NE,45,0.0,3.0,73,0.00,,---,0.00,VWS V14.00,2013-06-06 06:59:00,
2013-06-06 03:04:00,57.8,49.2,29.88,NE,49,0.0,1.0,73,0.00,,---,0.00,VWS V14.00,2013-06-06 07:04:00,
2013-06-06 03:09:00,57.8,49.6,29.88,ENE,76,0.0,1.0,74,0.00,,---,0.00,VWS V14.00,2013-06-06 07:09:00,
2013-06-06 03:15:00,57.8,49.6,29.88,ENE,76,0.0,1.0,74,0.00,,---,0.00,VWS V14.00,2013-06-06 07:15:00,
2013-06-06 03:20:00,57.7,49.8,29.88,ENE,71,0.0,1.0,75,0.00,,---,0.00,VWS V14.00,2013-06-06 07:20:00,
2013-06-06 03:25:00,57.7,49.8,29.88,ENE,71,0.0,1.0,75,0.00,,---,0.00,VWS V14.00,2013-06-06 07:25:00,
2013-06-06 03:30:00,57.7,49.8,29.88,ENE,71,0.0,0.0,75,0.00,,---,0.00,VWS V14.00,2013-06-06 07:30:00,
2013-06-06 03:35:00,57.7,49.8,29.88,ENE,70,0.0,0.0,75,0.00,,---,0.00,VWS V14.00,2013-06-06 07:35:00,
2013-06-06 03:40:00,57.7,49.8,29.88,ENE,71,0.0,2.0,75,0.00,,---,0.00,VWS V14.00,2013-06-06 07:40:00,
2013-06-06 03:45:00,57.7,49.5,29.87,East,82,0.0,2.0,74,0.00,,---,0.00,VWS V14.00,2013-06-06 07:45:00,
2013-06-06 03:50:00,57.7,49.5,29.87,ENE,66,0.0,3.0,74,0.00,,---,0.00,VWS V14.00,2013-06-06 07:50:00,
2013-06-06 03:55:00,57.7,49.1,29.87,East,86,0.0,4.0,73,0.00,,---,0.00,VWS V14.00,2013-06-06 07:55:00,
2013-06-06 04:00:00,57.8,49.2,29.87,East,88,0.0,1.0,73,0.00,,---,0.00,VWS V14.00,2013-06-06 08:00:00,
2013-06-06 04:05:00,57.8,49.2,29.87,ESE,114,0.0,1.0,73,0.00,,---,0.00,VWS V14.00,2013-06-06 08:05:00,
2013-06-06 04:10:00,57.8,48.8,29.86,ESE,103,0.0,2.0,72,0.00,,---,0.00,VWS V14.00,2013-06-06 08:10:00,
2013-06-06 04:16:00,57.8,48.8,29.86,East,84,2.0,4.0,72,0.00,,---,0.00,VWS V14.00,2013-06-06 08:16:00,
2013-06-06 04:21:00,57.8,48.5,29.86,ENE,76,0.0,4.0,71,0.00,,---,0.00,VWS V14.00,2013-06-06 08:21:00,
2013-06-06 04:26:00,57.8,48.5,29.86,ENE,71,2.0,4.0,71,0.00,,---,0.00,VWS V14.00,2013-06-06 08:26:00,
2013-06-06 04:31:00,57.8,48.1,29.86,SE,133,0.0,1.0,70,0.00,,---,0.00,VWS V14.00,2013-06-06 08:31:00,
2013-06-06 04:36:00,57.9,48.2,29.86,ENE,74,3.0,5.0,70,0.00,,---,0.00,VWS V14.00,2013-06-06 08:36:00,
2013-06-06 04:41:00,57.8,48.1,29.86,NE,41,0.0,5.0,70,0.00,,---,0.00,VWS V14.00,2013-06-06 08:41:00,
2013-06-06 04:46:00,57.8,48.1,29.86,NNE,25,0.0,5.0,70,0.00,,---,0.00,VWS V14.00,2013-06-06 08:46:00,
2013-06-06 04:52:00,57.8,48.1,29.85,ENE,67,0.0,7.0,70,0.00,,---,0.00,VWS V14.00,2013-06-06 08:52:00,
2013-06-06 04:57:00,57.8,48.5,29.85,East,91,1.0,7.0,71,0.00,,---,0.00,VWS V14.00,2013-06-06 08:57:00,
2013-06-06 05:02:00,57.8,48.5,29.86,ENE,66,0.0,1.0,71,0.00,,---,0.00,VWS V14.00,2013-06-06 09:02:00,
2013-06-06 05:07:00,57.8,48.5,29.86,ENE,68,1.0,8.0,71,0.00,,---,0.00,VWS V14.00,2013-06-06 09:07:00,
2013-06-06 05:12:00,57.8,48.5,29.86,East,84,0.0,8.0,71,0.00,,---,0.00,VWS V14.00,2013-06-06 09:12:00,
2013-06-06 05:17:00,57.7,48.4,29.86,ESE,119,0.0,8.0,71,0.00,,---,0.00,VWS V14.00,2013-06-06 09:17:00,
2013-06-06 05:22:00,57.7,48.4,29.86,East,96,0.0,8.0,71,0.00,,---,0.00,VWS V14.00,2013-06-06 09:22:00,
2013-06-06 05:27:00,57.8,48.1,29.86,ENE,78,0.0,8.0,70,0.00,,---,0.00,VWS V14.00,2013-06-06 09:27:00,
2013-06-06 05:33:00,57.8,48.1,29.86,ENE,67,0.0,2.0,70,0.00,,---,0.00,VWS V14.00,2013-06-06 09:33:00,
2013-06-06 05:38:00,57.8,48.1,29.86,ENE,78,0.0,3.0,70,0.00,,---,0.00,VWS V14.00,2013-06-06 09:38:00,
2013-06-06 05:43:00,57.8,48.1,29.86,ESE,103,0.0,3.0,70,0.00,,---,0.00,VWS V14.00,2013-06-06 09:43:00,
2013-06-06 05:48:00,57.8,48.1,29.86,East,81,2.0,3.0,70,0.00,,---,0.00,VWS V14.00,2013-06-06 09:48:00,
2013-06-06 05:53:00,57.8,48.1,29.86,East,80,0.0,3.0,70,0.00,,---,0.00,VWS V14.00,2013-06-06 09:53:00,
2013-06-06 05:58:00,57.8,48.1,29.85,ENE,61,1.0,7.0,70,0.00,,---,0.00,VWS V14.00,2013-06-06 09:58:00,
2013-06-06 06:03:00,57.8,48.1,29.86,ENE,64,0.0,2.0,70,0.00,,---,0.00,VWS V14.00,2013-06-06 10:03:00,
2013-06-06 06:08:00,57.8,48.1,29.86,East,86,0.0,4.0,70,0.00,,---,0.00,VWS V14.00,2013-06-06 10:08:00,
2013-06-06 06:13:00,57.8,48.1,29.86,East,85,0.0,4.0,70,0.00,,---,0.00,VWS V14.00,2013-06-06 10:13:00,
2013-06-06 06:18:00,57.8,48.1,29.86,ENE,72,1.0,4.0,70,0.00,,---,0.00,VWS V14.00,2013-06-06 10:18:00,
2013-06-06 06:23:00,57.7,47.6,29.86,ENE,63,1.0,4.0,69,0.00,,---,0.00,VWS V14.00,2013-06-06 10:23:00,
2013-06-06 06:29:00,57.7,48.0,29.86,East,79,0.0,5.0,70,0.00,,---,0.00,VWS V14.00,2013-06-06 10:29:00,
2013-06-06 06:34:00,57.7,48.0,29.86,ENE,75,4.0,6.0,70,0.00,,---,0.00,VWS V14.00,2013-06-06 10:34:00,
2013-06-06 06:39:00,57.7,47.6,29.86,ESE,116,2.0,6.0,69,0.00,,---,0.00,VWS V14.00,2013-06-06 10:39:00,
2013-06-06 06:44:00,57.6,47.9,29.87,East,89,0.0,6.0,70,0.00,,---,0.00,VWS V14.00,2013-06-06 10:44:00,
2013-06-06 06:49:00,57.6,47.5,29.86,NNE,29,1.0,6.0,69,0.00,,---,0.00,VWS V14.00,2013-06-06 10:49:00,
2013-06-06 06:54:00,57.6,47.5,29.86,East,85,0.0,6.0,69,0.00,,---,0.00,VWS V14.00,2013-06-06 10:54:00,
2013-06-06 06:59:00,57.5,47.4,29.86,ENE,71,2.0,6.0,69,0.00,,---,0.00,VWS V14.00,2013-06-06 10:59:00,
2013-06-06 07:04:00,57.5,47.4,29.85,NE,51,0.0,5.0,69,0.00,,---,0.00,VWS V14.00,2013-06-06 11:04:00,
2013-06-06 07:10:00,57.4,47.3,29.85,ESE,110,0.0,5.0,69,0.00,,---,0.00,VWS V14.00,2013-06-06 11:10:00,
2013-06-06 07:15:00,57.3,47.2,29.85,NE,53,0.0,5.0,69,0.00,,---,0.00,VWS V14.00,2013-06-06 11:15:00,
2013-06-06 07:20:00,57.3,47.2,29.85,NNE,23,0.0,5.0,69,0.00,,---,0.00,VWS V14.00,2013-06-06 11:20:00,
2013-06-06 07:25:00,57.3,47.2,29.84,East,92,1.0,5.0,69,0.00,,---,0.00,VWS V14.00,2013-06-06 11:25:00,
2013-06-06 07:30:00,57.2,46.8,29.84,ENE,76,1.0,1.0,68,0.00,,---,0.00,VWS V14.00,2013-06-06 11:30:00,
2013-06-06 07:35:00,57.2,46.8,29.84,East,82,2.0,4.0,68,0.00,,---,0.00,VWS V14.00,2013-06-06 11:35:00,
2013-06-06 07:40:00,57.1,46.3,29.85,NE,35,0.0,7.0,67,0.00,,---,0.00,VWS V14.00,2013-06-06 11:40:00,
2013-06-06 07:45:00,57.1,46.3,29.84,ENE,68,1.0,7.0,67,0.00,,---,0.00,VWS V14.00,2013-06-06 11:45:00,
2013-06-06 07:50:00,57.1,46.3,29.84,NNE,24,2.0,7.0,67,0.00,,---,0.00,VWS V14.00,2013-06-06 11:50:00,
2013-06-06 07:56:00,57.1,46.3,29.84,ENE,67,2.0,7.0,67,0.00,,---,0.00,VWS V14.00,2013-06-06 11:56:00,
2013-06-06 08:01:00,57.2,46.4,29.84,SE,132,0.0,3.0,67,0.00,,---,0.00,VWS V14.00,2013-06-06 12:01:00,
2013-06-06 08:06:00,57.2,46.0,29.84,East,92,1.0,3.0,66,0.00,,---,0.00,VWS V14.00,2013-06-06 12:06:00,
2013-06-06 08:11:00,57.2,46.0,29.84,NE,36,0.0,3.0,66,0.00,,---,0.00,VWS V14.00,2013-06-06 12:11:00,
2013-06-06 08:17:00,57.3,46.5,29.84,ENE,74,1.0,4.0,67,0.00,,---,0.00,VWS V14.00,2013-06-06 12:17:00,
2013-06-06 08:22:00,57.3,46.0,29.84,ESE,110,1.0,4.0,66,0.00,,---,0.00,VWS V14.00,2013-06-06 12:22:00,
2013-06-06 08:27:00,57.3,46.0,29.84,ESE,105,0.0,4.0,66,0.00,,---,0.00,VWS V14.00,2013-06-06 12:27:00,
2013-06-06 08:32:00,57.4,46.2,29.84,NE,47,0.0,1.0,66,0.00,,---,0.00,VWS V14.00,2013-06-06 12:32:00,
2013-06-06 08:37:00,57.4,46.2,29.84,ENE,59,4.0,4.0,66,0.00,,---,0.00,VWS V14.00,2013-06-06 12:37:00,
2013-06-06 08:42:00,57.4,46.2,29.84,East,87,0.0,5.0,66,0.00,,---,0.00,VWS V14.00,2013-06-06 12:42:00,
2013-06-06 08:47:00,57.4,46.2,29.84,East,79,2.0,5.0,66,0.00,,---,0.00,VWS V14.00,2013-06-06 12:47:00,
2013-06-06 08:52:00,57.5,45.8,29.84,NE,55,0.0,5.0,65,0.00,,---,0.00,VWS V14.00,2013-06-06 12:52:00,
2013-06-06 08:58:00,57.5,46.2,29.84,East,90,0.0,5.0,66,0.00,,---,0.00,VWS V14.00,2013-06-06 12:58:00,
2013-06-06 09:03:00,57.5,46.2,29.85,NNE,32,2.0,3.0,66,0.00,,---,0.00,VWS V14.00,2013-06-06 13:03:00,
2013-06-06 09:08:00,57.6,46.3,29.86,NE,53,0.0,4.0,66,0.00,,---,0.00,VWS V14.00,2013-06-06 13:08:00,
2013-06-06 09:13:00,57.6,46.3,29.86,ENE,69,0.0,4.0,66,0.00,,---,0.00,VWS V14.00,2013-06-06 13:13:00,
2013-06-06 09:18:00,57.6,45.9,29.85,ENE,70,0.0,4.0,65,0.00,,---,0.00,VWS V14.00,2013-06-06 13:18:00,
2013-06-06 09:23:00,57.7,45.6,29.84,ENE,57,0.0,4.0,64,0.00,,---,0.00,VWS V14.00,2013-06-06 13:23:00,
2013-06-06 09:28:00,57.8,46.1,29.84,ENE,70,0.0,4.0,65,0.00,,---,0.00,VWS V14.00,2013-06-06 13:28:00,
2013-06-06 09:33:00,57.9,46.2,29.84,NNW,344,0.0,2.0,65,0.00,,---,0.00,VWS V14.00,2013-06-06 13:33:00,
2013-06-06 09:38:00,58.1,46.0,29.84,East,90,2.0,5.0,64,0.00,,---,0.00,VWS V14.00,2013-06-06 13:38:00,
2013-06-06 09:44:00,58.3,46.2,29.85,East,80,0.0,5.0,64,0.00,,---,0.00,VWS V14.00,2013-06-06 13:44:00,
2013-06-06 09:49:00,58.5,46.4,29.85,ENE,78,0.0,5.0,64,0.00,,---,0.00,VWS V14.00,2013-06-06 13:49:00,
2013-06-06 09:54:00,58.7,46.6,29.84,ENE,68,2.0,5.0,64,0.00,,---,0.00,VWS V14.00,2013-06-06 13:54:00,
2013-06-06 09:59:00,59.0,47.3,29.84,East,79,0.0,5.0,65,0.00,,---,0.00,VWS V14.00,2013-06-06 13:59:00,
2013-06-06 10:04:00,59.5,46.9,29.84,ENE,62,0.0,2.0,63,0.00,,---,0.00,VWS V14.00,2013-06-06 14:04:00,
2013-06-06 10:09:00,59.9,47.7,29.84,NE,52,0.0,2.0,64,0.00,,---,0.00,VWS V14.00,2013-06-06 14:09:00,
2013-06-06 10:15:00,60.5,47.0,29.85,East,84,0.0,3.0,61,0.00,,---,0.00,VWS V14.00,2013-06-06 14:15:00,
2013-06-06 10:20:00,60.8,47.3,29.85,East,83,1.0,3.0,61,0.00,,---,0.00,VWS V14.00,2013-06-06 14:20:00,
2013-06-06 10:25:00,60.7,46.8,29.85,East,95,0.0,3.0,60,0.00,,---,0.00,VWS V14.00,2013-06-06 14:25:00,
2013-06-06 10:30:00,60.7,47.2,29.85,ENE,62,0.0,1.0,61,0.00,,---,0.00,VWS V14.00,2013-06-06 14:30:00,
2013-06-06 10:35:00,60.8,47.3,29.85,East,85,0.0,3.0,61,0.00,,---,0.00,VWS V14.00,2013-06-06 14:35:00,
2013-06-06 10:40:00,60.8,46.8,29.85,ESE,115,0.0,5.0,60,0.00,,---,0.00,VWS V14.00,2013-06-06 14:40:00,
2013-06-06 10:45:00,60.9,47.8,29.85,NE,47,1.0,5.0,62,0.00,,---,0.00,VWS V14.00,2013-06-06 14:45:00,
2013-06-06 10:51:00,60.8,47.7,29.85,NNE,32,0.0,5.0,62,0.00,,---,0.00,VWS V14.00,2013-06-06 14:51:00,
2013-06-06 10:56:00,61.0,48.3,29.85,ENE,76,0.0,5.0,63,0.00,,---,0.00,VWS V14.00,2013-06-06 14:56:00,
2013-06-06 11:01:00,61.1,48.0,29.85,ENE,74,0.0,1.0,62,0.00,,---,0.00,VWS V14.00,2013-06-06 15:01:00,
2013-06-06 11:06:00,61.2,48.1,29.85,NNE,26,3.0,4.0,62,0.00,,---,0.00,VWS V14.00,2013-06-06 15:06:00,
2013-06-06 11:11:00,61.3,48.2,29.85,NNE,16,0.0,4.0,62,0.00,,---,0.00,VWS V14.00,2013-06-06 15:11:00,
2013-06-06 11:16:00,61.3,48.2,29.85,NNE,32,0.0,4.0,62,0.00,,---,0.00,VWS V14.00,2013-06-06 15:16:00,
2013-06-06 11:21:00,61.6,48.5,29.84,NNE,32,0.0,4.0,62,0.00,,---,0.00,VWS V14.00,2013-06-06 15:21:00,
2013-06-06 11:26:00,61.7,48.6,29.84,East,100,0.0,4.0,62,0.00,,---,0.00,VWS V14.00,2013-06-06 15:26:00,
2013-06-06 11:32:00,62.1,48.9,29.84,East,99,0.0,2.0,62,0.00,,---,0.00,VWS V14.00,2013-06-06 15:32:00,
2013-06-06 11:37:00,62.6,48.5,29.84,ESE,118,1.0,5.0,60,0.00,,---,0.00,VWS V14.00,2013-06-06 15:37:00,
2013-06-06 11:43:00,63.0,49.4,29.84,East,91,1.0,5.0,61,0.00,,---,0.00,VWS V14.00,2013-06-06 15:43:00,
2013-06-06 11:48:00,63.4,49.7,29.84,East,86,3.0,5.0,61,0.00,,---,0.00,VWS V14.00,2013-06-06 15:48:00,
2013-06-06 11:53:00,63.8,49.7,29.84,ENE,78,2.0,5.0,60,0.00,,---,0.00,VWS V14.00,2013-06-06 15:53:00,
2013-06-06 11:58:00,63.9,50.2,29.84,East,90,1.0,5.0,61,0.00,,---,0.00,VWS V14.00,2013-06-06 15:58:00,
2013-06-06 12:03:00,64.6,50.0,29.84,East,88,3.0,4.0,59,0.00,,---,0.00,VWS V14.00,2013-06-06 16:03:00,
2013-06-06 12:09:00,65.3,50.6,29.83,East,89,2.0,6.0,59,0.00,,---,0.00,VWS V14.00,2013-06-06 16:09:00,
2013-06-06 12:14:00,65.8,50.2,29.83,East,83,0.0,6.0,57,0.00,,---,0.00,VWS V14.00,2013-06-06 16:14:00,
2013-06-06 12:19:00,66.4,51.2,29.83,East,89,2.0,6.0,58,0.00,,---,0.00,VWS V14.00,2013-06-06 16:19:00,
2013-06-06 12:24:00,67.2,52.4,29.83,East,91,1.0,6.0,59,0.00,,---,0.00,VWS V14.00,2013-06-06 16:24:00,
2013-06-06 12:29:00,68.1,51.3,29.83,NE,40,0.0,6.0,55,0.00,,---,0.00,VWS V14.00,2013-06-06 16:29:00,
2013-06-06 12:34:00,68.7,51.9,29.83,North,349,1.0,5.0,55,0.00,,---,0.00,VWS V14.00,2013-06-06 16:34:00,
2013-06-06 12:39:00,69.3,52.5,29.83,ESE,111,1.0,6.0,55,0.00,,---,0.00,VWS V14.00,2013-06-06 16:39:00,
2013-06-06 12:44:00,70.0,52.1,29.83,East,89,0.0,6.0,53,0.00,,---,0.00,VWS V14.00,2013-06-06 16:44:00,
2013-06-06 12:50:00,70.4,52.5,29.83,ESE,115,1.0,6.0,53,0.00,,---,0.00,VWS V14.00,2013-06-06 16:50:00,
2013-06-06 12:55:00,70.8,52.8,29.83,ENE,76,0.0,6.0,53,0.00,,---,0.00,VWS V14.00,2013-06-06 16:55:00,
2013-06-06 13:00:00,71.1,53.1,29.83,ENE,61,2.0,4.0,53,0.00,,---,0.00,VWS V14.00,2013-06-06 17:00:00,
2013-06-06 13:05:00,71.1,52.1,29.83,ENE,75,1.0,4.0,51,0.00,,---,0.00,VWS V14.00,2013-06-06 17:05:00,
2013-06-06 13:10:00,71.2,53.2,29.83,NE,54,0.0,4.0,53,0.00,,---,0.00,VWS V14.00,2013-06-06 17:10:00,
2013-06-06 13:15:00,71.0,52.5,29.83,ENE,59,0.0,4.0,52,0.00,,---,0.00,VWS V14.00,2013-06-06 17:15:00,
2013-06-06 13:20:00,71.2,54.7,29.83,ENE,57,0.0,4.0,56,0.00,,---,0.00,VWS V14.00,2013-06-06 17:20:00,
2013-06-06 13:26:00,71.6,53.1,29.83,East,80,0.0,5.0,52,0.00,,---,0.00,VWS V14.00,2013-06-06 17:26:00,
2013-06-06 13:31:00,72.2,54.1,29.82,ESE,119,0.0,4.0,53,0.00,,---,0.00,VWS V14.00,2013-06-06 17:31:00,
2013-06-06 13:36:00,72.6,53.5,29.82,East,86,2.0,8.0,51,0.00,,---,0.00,VWS V14.00,2013-06-06 17:36:00,
2013-06-06 13:41:00,73.0,53.8,29.82,SE,135,4.0,8.0,51,0.00,,---,0.00,VWS V14.00,2013-06-06 17:41:00,
2013-06-06 13:46:00,72.6,52.9,29.82,NE,53,0.0,8.0,50,0.00,,---,0.00,VWS V14.00,2013-06-06 17:46:00,
2013-06-06 13:52:00,72.4,54.3,29.81,ENE,73,0.0,8.0,53,0.00,,---,0.00,VWS V14.00,2013-06-06 17:52:00,
2013-06-06 13:57:00,72.6,54.5,29.82,East,100,1.0,8.0,53,0.00,,---,0.00,VWS V14.00,2013-06-06 17:57:00,
2013-06-06 14:02:00,73.0,53.8,29.81,ESE,115,0.0,4.0,51,0.00,,---,0.00,VWS V14.00,2013-06-06 18:02:00,
2013-06-06 14:07:00,73.0,53.8,29.81,ESE,119,1.0,6.0,51,0.00,,---,0.00,VWS V14.00,2013-06-06 18:07:00,
2013-06-06 14:12:00,73.6,54.9,29.81,ESE,118,1.0,6.0,52,0.00,,---,0.00,VWS V14.00,2013-06-06 18:12:00,
2013-06-06 14:17:00,73.9,54.7,29.81,East,84,0.0,6.0,51,0.00,,---,0.00,VWS V14.00,2013-06-06 18:17:00,
2013-06-06 14:23:00,74.0,54.7,29.81,NE,40,0.0,6.0,51,0.00,,---,0.00,VWS V14.00,2013-06-06 18:23:00,
2013-06-06 14:28:00,74.3,54.5,29.81,East,92,0.0,6.0,50,0.00,,---,0.00,VWS V14.00,2013-06-06 18:28:00,
2013-06-06 14:33:00,74.6,55.3,29.81,East,82,3.0,4.0,51,0.00,,---,0.00,VWS V14.00,2013-06-06 18:33:00,
2013-06-06 14:38:00,75.0,55.1,29.81,ESE,111,2.0,6.0,50,0.00,,---,0.00,VWS V14.00,2013-06-06 18:38:00,
2013-06-06 14:43:00,75.2,56.4,29.80,NE,42,0.0,6.0,52,0.00,,---,0.00,VWS V14.00,2013-06-06 18:43:00,
2013-06-06 14:48:00,75.3,55.4,29.80,East,80,1.0,6.0,50,0.00,,---,0.00,VWS V14.00,2013-06-06 18:48:00,
2013-06-06 14:53:00,75.6,55.7,29.80,ENE,71,0.0,6.0,50,0.00,,---,0.00,VWS V14.00,2013-06-06 18:53:00,
2013-06-06 14:58:00,75.9,55.4,29.80,East,86,0.0,6.0,49,0.00,,---,0.00,VWS V14.00,2013-06-06 18:58:00,
2013-06-06 15:03:00,76.2,54.5,29.80,NE,47,0.0,5.0,47,0.00,,---,0.00,VWS V14.00,2013-06-06 19:03:00,
2013-06-06 15:08:00,76.4,55.3,29.80,ESE,121,0.0,5.0,48,0.00,,---,0.00,VWS V14.00,2013-06-06 19:08:00,
2013-06-06 15:13:00,76.5,55.4,29.80,NE,51,3.0,5.0,48,0.00,,---,0.00,VWS V14.00,2013-06-06 19:13:00,
2013-06-06 15:19:00,76.6,56.0,29.80,ESE,109,0.0,5.0,49,0.00,,---,0.00,VWS V14.00,2013-06-06 19:19:00,
2013-06-06 15:24:00,76.5,55.9,29.80,ENE,68,0.0,5.0,49,0.00,,---,0.00,VWS V14.00,2013-06-06 19:24:00,
2013-06-06 15:29:00,76.8,56.8,29.80,SE,136,0.0,5.0,50,0.00,,---,0.00,VWS V14.00,2013-06-06 19:29:00,
2013-06-06 15:34:00,77.1,55.3,29.80,ESE,110,0.0,4.0,47,0.00,,---,0.00,VWS V14.00,2013-06-06 19:34:00,
2013-06-06 15:39:00,77.2,56.0,29.80,ESE,110,0.0,4.0,48,0.00,,---,0.00,VWS V14.00,2013-06-06 19:39:00,
2013-06-06 15:44:00,77.0,55.8,29.80,East,90,0.0,4.0,48,0.00,,---,0.00,VWS V14.00,2013-06-06 19:44:00,
2013-06-06 15:49:00,77.2,56.0,29.80,ESE,119,0.0,5.0,48,0.00,,---,0.00,VWS V14.00,2013-06-06 19:49:00,
2013-06-06 15:54:00,77.6,56.4,29.80,NE,53,1.0,5.0,48,0.00,,---,0.00,VWS V14.00,2013-06-06 19:54:00,
2013-06-06 15:59:00,77.9,57.8,29.80,ESE,110,2.0,5.0,50,0.00,,---,0.00,VWS V14.00,2013-06-06 19:59:00,
2013-06-06 16:04:00,77.9,55.5,29.80,ENE,71,1.0,5.0,46,0.00,,---,0.00,VWS V14.00,2013-06-06 20:04:00,
2013-06-06 16:10:00,77.8,57.1,29.80,SE,130,0.0,5.0,49,0.00,,---,0.00,VWS V14.00,2013-06-06 20:10:00,
2013-06-06 16:15:00,78.0,56.2,29.80,ESE,114,0.0,5.0,47,0.00,,---,0.00,VWS V14.00,2013-06-06 20:15:00,
2013-06-06 16:20:00,78.1,55.7,29.80,ENE,78,0.0,5.0,46,0.00,,---,0.00,VWS V14.00,2013-06-06 20:20:00,
2013-06-06 16:25:00,78.0,56.2,29.79,ENE,78,0.0,5.0,47,0.00,,---,0.00,VWS V14.00,2013-06-06 20:25:00,
2013-06-06 16:30:00,78.0,56.2,29.79,East,93,1.0,1.0,47,0.00,,---,0.00,VWS V14.00,2013-06-06 20:30:00,
2013-06-06 16:35:00,78.2,56.3,29.79,SE,136,0.0,4.0,47,0.00,,---,0.00,VWS V14.00,2013-06-06 20:35:00,
2013-06-06 16:41:00,78.3,56.4,29.79,ENE,61,1.0,6.0,47,0.00,,---,0.00,VWS V14.00,2013-06-06 20:41:00,
2013-06-06 16:46:00,78.3,55.2,29.79,ESE,105,0.0,6.0,45,0.00,,---,0.00,VWS V14.00,2013-06-06 20:46:00,
2013-06-06 16:51:00,78.3,55.2,29.79,East,89,0.0,6.0,45,0.00,,---,0.00,VWS V14.00,2013-06-06 20:51:00,
2013-06-06 16:56:00,77.9,55.5,29.78,ESE,116,0.0,6.0,46,0.00,,---,0.00,VWS V14.00,2013-06-06 20:56:00,
2013-06-06 17:02:00,77.6,56.4,29.78,ENE,67,0.0,1.0,48,0.00,,---,0.00,VWS V14.00,2013-06-06 21:02:00,
2013-06-06 17:07:00,77.6,56.4,29.78,East,92,0.0,4.0,48,0.00,,---,0.00,VWS V14.00,2013-06-06 21:07:00,
2013-06-06 17:12:00,77.8,56.0,29.78,East,98,0.0,4.0,47,0.00,,---,0.00,VWS V14.00,2013-06-06 21:12:00,
2013-06-06 17:17:00,77.8,56.6,29.78,SE,126,7.0,9.0,48,0.00,,---,0.00,VWS V14.00,2013-06-06 21:17:00,
2013-06-06 17:22:00,77.8,56.6,29.78,ESE,115,0.0,9.0,48,0.00,,---,0.00,VWS V14.00,2013-06-06 21:22:00,
2013-06-06 17:27:00,78.0,56.2,29.78,ENE,67,0.0,9.0,47,0.00,,---,0.00,VWS V14.00,2013-06-06 21:27:00,
2013-06-06 17:33:00,78.0,55.6,29.78,ENE,67,1.0,1.0,46,0.00,,---,0.00,VWS V14.00,2013-06-06 21:33:00,
2013-06-06 17:38:00,77.7,55.9,29.79,ENE,74,0.0,1.0,47,0.00,,---,0.00,VWS V14.00,2013-06-06 21:38:00,
2013-06-06 17:43:00,77.3,55.5,29.79,East,82,0.0,2.0,47,0.00,,---,0.00,VWS V14.00,2013-06-06 21:43:00,
2013-06-06 17:48:00,77.0,55.8,29.79,ESE,111,0.0,9.0,48,0.00,,---,0.00,VWS V14.00,2013-06-06 21:48:00,
2013-06-06 17:53:00,76.7,55.0,29.79,East,79,1.0,9.0,47,0.00,,---,0.00,VWS V14.00,2013-06-06 21:53:00,
2013-06-06 17:58:00,76.4,55.3,29.79,ESE,115,1.0,9.0,48,0.00,,---,0.00,VWS V14.00,2013-06-06 21:58:00,
2013-06-06 18:03:00,76.1,55.0,29.79,East,86,0.0,1.0,48,0.00,,---,0.00,VWS V14.00,2013-06-06 22:03:00,
2013-06-06 18:08:00,76.1,55.6,29.79,East,86,0.0,1.0,49,0.00,,---,0.00,VWS V14.00,2013-06-06 22:08:00,
2013-06-06 18:13:00,76.0,56.0,29.79,East,86,0.0,1.0,50,0.00,,---,0.00,VWS V14.00,2013-06-06 22:13:00,
2013-06-06 18:18:00,75.9,56.5,29.79,East,86,0.0,1.0,51,0.00,,---,0.00,VWS V14.00,2013-06-06 22:18:00,
2013-06-06 18:23:00,75.8,55.3,29.79,ESE,117,0.0,4.0,49,0.00,,---,0.00,VWS V14.00,2013-06-06 22:23:00,
2013-06-06 18:29:00,75.8,55.9,29.79,ESE,112,0.0,4.0,50,0.00,,---,0.00,VWS V14.00,2013-06-06 22:29:00,
2013-06-06 18:34:00,75.8,55.3,29.79,ESE,112,0.0,1.0,49,0.00,,---,0.00,VWS V14.00,2013-06-06 22:34:00,
2013-06-06 18:39:00,75.7,55.2,29.79,ESE,112,0.0,1.0,49,0.00,,---,0.00,VWS V14.00,2013-06-06 22:39:00,
2013-06-06 18:44:00,75.4,54.9,29.79,NE,49,0.0,3.0,49,0.00,,---,0.00,VWS V14.00,2013-06-06 22:44:00,
2013-06-06 18:49:00,75.2,55.8,29.79,NE,55,0.0,3.0,51,0.00,,---,0.00,VWS V14.00,2013-06-06 22:49:00,
2013-06-06 18:54:00,74.9,55.6,29.79,NE,55,0.0,3.0,51,0.00,,---,0.00,VWS V14.00,2013-06-06 22:54:00,
2013-06-06 18:59:00,74.8,56.0,29.79,NE,55,0.0,3.0,52,0.00,,---,0.00,VWS V14.00,2013-06-06 22:59:00,
2013-06-06 19:04:00,74.6,55.8,29.80,ESE,103,0.0,1.0,52,0.00,,---,0.00,VWS V14.00,2013-06-06 23:04:00,
2013-06-06 19:09:00,74.3,55.6,29.79,ESE,102,0.0,1.0,52,0.00,,---,0.00,VWS V14.00,2013-06-06 23:09:00,
2013-06-06 19:14:00,74.0,55.3,29.79,ESE,102,0.0,1.0,52,0.00,,---,0.00,VWS V14.00,2013-06-06 23:14:00,
2013-06-06 19:20:00,73.8,55.6,29.80,ESE,103,0.0,1.0,53,0.00,,---,0.00,VWS V14.00,2013-06-06 23:20:00,
2013-06-06 19:25:00,73.3,56.2,29.80,ESE,103,0.0,1.0,55,0.00,,---,0.00,VWS V14.00,2013-06-06 23:25:00,
2013-06-06 19:30:00,72.8,56.2,29.80,ENE,59,0.0,0.0,56,0.00,,---,0.00,VWS V14.00,2013-06-06 23:30:00,
2013-06-06 19:35:00,72.5,56.4,29.80,NNE,18,0.0,1.0,57,0.00,,---,0.00,VWS V14.00,2013-06-06 23:35:00,
2013-06-06 19:40:00,72.2,56.1,29.81,NNE,17,0.0,1.0,57,0.00,,---,0.00,VWS V14.00,2013-06-06 23:40:00,
2013-06-06 19:45:00,71.9,55.9,29.80,ENE,69,0.0,6.0,57,0.00,,---,0.00,VWS V14.00,2013-06-06 23:45:00,
2013-06-06 19:50:00,71.7,56.2,29.81,NE,53,0.0,6.0,58,0.00,,---,0.00,VWS V14.00,2013-06-06 23:50:00,
2013-06-06 19:55:00,71.4,56.3,29.81,NW,325,0.0,6.0,59,0.00,,---,0.00,VWS V14.00,2013-06-06 23:55:00,
2013-06-06 20:01:00,71.1,56.5,29.80,NNW,346,0.0,0.0,60,0.00,,---,0.00,VWS V14.00,2013-06-07 00:01:00,
2013-06-06 20:06:00,70.9,56.3,29.80,ENE,75,0.0,1.0,60,0.00,,---,0.00,VWS V14.00,2013-06-07 00:06:00,
2013-06-06 20:11:00,70.6,56.5,29.80,ENE,71,0.0,2.0,61,0.00,,---,0.00,VWS V14.00,2013-06-07 00:11:00,
2013-06-06 20:17:00,70.4,56.3,29.81,ENE,60,1.0,3.0,61,0.00,,---,0.00,VWS V14.00,2013-06-07 00:17:00,
2013-06-06 20:22:00,70.3,56.2,29.81,ENE,58,0.0,3.0,61,0.00,,---,0.00,VWS V14.00,2013-06-07 00:22:00,
2013-06-06 20:27:00,70.1,56.5,29.81,ENE,58,0.0,3.0,62,0.00,,---,0.00,VWS V14.00,2013-06-07 00:27:00,
2013-06-06 20:32:00,69.9,56.3,29.81,ENE,69,1.0,1.0,62,0.00,,---,0.00,VWS V14.00,2013-06-07 00:32:00,
2013-06-06 20:37:00,69.8,56.2,29.81,ESE,111,0.0,3.0,62,0.00,,---,0.00,VWS V14.00,2013-06-07 00:37:00,
2013-06-06 20:42:00,69.5,56.4,29.81,ESE,111,0.0,3.0,63,0.00,,---,0.00,VWS V14.00,2013-06-07 00:42:00,
2013-06-06 20:47:00,69.3,56.2,29.82,East,82,0.0,3.0,63,0.00,,---,0.00,VWS V14.00,2013-06-07 00:47:00,
2013-06-06 20:52:00,69.1,56.0,29.82,ENE,76,0.0,3.0,63,0.00,,---,0.00,VWS V14.00,2013-06-07 00:52:00,
2013-06-06 20:57:00,68.9,55.8,29.82,East,83,0.0,3.0,63,0.00,,---,0.00,VWS V14.00,2013-06-07 00:57:00,
2013-06-06 21:02:00,68.8,56.1,29.82,East,83,0.0,1.0,64,0.00,,---,0.00,VWS V14.00,2013-06-07 01:02:00,
2013-06-06 21:07:00,68.7,56.0,29.82,East,83,0.0,1.0,64,0.00,,---,0.00,VWS V14.00,2013-06-07 01:07:00,
2013-06-06 21:13:00,68.5,56.3,29.82,East,84,0.0,1.0,65,0.00,,---,0.00,VWS V14.00,2013-06-07 01:13:00,
2013-06-06 21:18:00,68.4,56.2,29.82,East,84,0.0,1.0,65,0.00,,---,0.00,VWS V14.00,2013-06-07 01:18:00,
2013-06-06 21:23:00,68.3,56.1,29.82,East,84,0.0,1.0,65,0.00,,---,0.00,VWS V14.00,2013-06-07 01:23:00,
2013-06-06 21:28:00,68.1,56.3,29.82,East,84,0.0,1.0,66,0.00,,---,0.00,VWS V14.00,2013-06-07 01:28:00,
2013-06-06 21:33:00,67.8,56.0,29.82,SE,140,2.0,3.0,66,0.00,,---,0.00,VWS V14.00,2013-06-07 01:33:00,
2013-06-06 21:38:00,67.6,55.8,29.82,North,5,0.0,5.0,66,0.00,,---,0.00,VWS V14.00,2013-06-07 01:38:00,
2013-06-06 21:44:00,67.4,55.7,29.82,NE,54,0.0,5.0,66,0.00,,---,0.00,VWS V14.00,2013-06-07 01:44:00,
2013-06-06 21:49:00,67.2,55.5,29.82,NE,38,0.0,5.0,66,0.00,,---,0.00,VWS V14.00,2013-06-07 01:49:00,
2013-06-06 21:54:00,67.0,55.7,29.82,NE,47,0.0,5.0,67,0.00,,---,0.00,VWS V14.00,2013-06-07 01:54:00,
2013-06-06 21:59:00,66.8,55.5,29.82,NE,34,1.0,6.0,67,0.00,,---,0.00,VWS V14.00,2013-06-07 01:59:00,
2013-06-06 22:04:00,66.6,55.3,29.82,ENE,57,0.0,6.0,67,0.00,,---,0.00,VWS V14.00,2013-06-07 02:04:00,
2013-06-06 22:09:00,66.4,55.1,29.82,ENE,72,1.0,6.0,67,0.00,,---,0.00,VWS V14.00,2013-06-07 02:09:00,
2013-06-06 22:14:00,66.2,55.3,29.83,ENE,78,0.0,6.0,68,0.00,,---,0.00,VWS V14.00,2013-06-07 02:14:00,
2013-06-06 22:20:00,66.1,55.2,29.83,ENE,78,0.0,6.0,68,0.00,,---,0.00,VWS V14.00,2013-06-07 02:20:00,
2013-06-06 22:25:00,65.9,55.0,29.83,ENE,77,0.0,6.0,68,0.00,,---,0.00,VWS V14.00,2013-06-07 02:25:00,
2013-06-06 22:30:00,65.7,55.3,29.84,ENE,61,1.0,2.0,69,0.00,,---,0.00,VWS V14.00,2013-06-07 02:30:00,
2013-06-06 22:35:00,65.6,55.2,29.84,East,92,1.0,2.0,69,0.00,,---,0.00,VWS V14.00,2013-06-07 02:35:00,
2013-06-06 22:40:00,65.4,55.0,29.84,NE,55,1.0,4.0,69,0.00,,---,0.00,VWS V14.00,2013-06-07 02:40:00,
2013-06-06 22:45:00,65.2,54.8,29.84,North,9,1.0,5.0,69,0.00,,---,0.00,VWS V14.00,2013-06-07 02:45:00,
2013-06-06 22:50:00,65.0,55.0,29.84,NNE,26,0.0,5.0,70,0.00,,---,0.00,VWS V14.00,2013-06-07 02:50:00,
2013-06-06 22:55:00,64.8,54.8,29.84,ESE,106,4.0,5.0,70,0.00,,---,0.00,VWS V14.00,2013-06-07 02:55:00,
2013-06-06 23:00:00,64.7,55.1,29.85,East,94,0.0,0.0,71,0.00,,---,0.00,VWS V14.00,2013-06-07 03:00:00,
2013-06-06 23:05:00,64.5,54.9,29.84,NE,55,1.0,3.0,71,0.00,,---,0.00,VWS V14.00,2013-06-07 03:05:00,
2013-06-06 23:11:00,64.3,54.7,29.85,NE,51,0.0,4.0,71,0.00,,---,0.00,VWS V14.00,2013-06-07 03:11:00,
2013-06-06 23:16:00,64.2,54.6,29.85,ENE,77,0.0,4.0,71,0.00,,---,0.00,VWS V14.00,2013-06-07 03:16:00,
2013-06-06 23:21:00,64.1,54.5,29.85,East,86,0.0,4.0,71,0.00,,---,0.00,VWS V14.00,2013-06-07 03:21:00,
2013-06-06 23:26:00,64.0,54.8,29.85,East,90,0.0,4.0,72,0.00,,---,0.00,VWS V14.00,2013-06-07 03:26:00,
2013-06-06 23:32:00,63.9,54.7,29.85,East,90,0.0,0.0,72,0.00,,---,0.00,VWS V14.00,2013-06-07 03:32:00,
2013-06-06 23:37:00,63.8,54.6,29.85,ENE,66,0.0,1.0,72,0.00,,---,0.00,VWS V14.00,2013-06-07 03:37:00,
2013-06-06 23:42:00,63.8,54.6,29.85,NNE,27,0.0,2.0,72,0.00,,---,0.00,VWS V14.00,2013-06-07 03:42:00,
2013-06-06 23:47:00,63.7,54.5,29.85,NNE,19,0.0,3.0,72,0.00,,---,0.00,VWS V14.00,2013-06-07 03:47:00,
2013-06-06 23:52:00,63.6,54.4,29.85,East,95,0.0,6.0,72,0.00,,---,0.00,VWS V14.00,2013-06-07 03:52:00,
2013-06-06 23:57:00,63.5,54.3,29.85,ENE,74,0.0,6.0,72,0.00,,---,0.00,VWS V14.00,2013-06-07 03:57:00,